This demonstration page uses our WeatherBlox Daily Observations layout. Learn more.

41.55636, -103.73856

Hourly Observations for May 4, 2017

Temp ( °F °C ) Dew Point ( °F °C ) Humidity (%) Winds ( mph kmh ) Pressure ( in mb ) Visibility ( mi km ) Precip ( " mm )
12:53 am 00:53 Clear 35 1.7 29 -1.7 78 78 ENE 3 6 30.25 1025 10 16.0934 0 0
1:53 am 01:53 Clear 33 0.6 27 -2.8 78 78 NNE 5 7 30.25 1024 10 16.0934 0 0
2:53 am 02:53 Clear 30 -1.1 27 -2.8 88 88 NNW 6 9 30.23 1024 10 16.0934 0 0
3:53 am 03:53 Clear 32 0 28 -2.2 85 85 NNE 3 6 30.22 1023 10 16.0934 0 0
4:53 am 04:53 Clear 33 0.6 27 -2.8 78 78 Calm 30.21 1023 10 16.0934 0 0
5:53 am 05:53 Sunny 30 -1.1 26 -3.3 85 85 NE 5 7 30.21 1023 10 16.0934 0 0
6:53 am 06:53 Sunny 37 2.8 31 -0.6 79 79 Calm 30.21 1023 10 16.0934 0 0
7:53 am 07:53 Sunny 42 5.6 33 0.6 71 71 W 3 6 30.22 1023 10 16.0934 0 0
8:53 am 08:53 Sunny 48 8.9 33 0.6 56 56 W 6 9 30.22 1023 10 16.0934 0 0
9:53 am 09:53 Sunny 54 12.2 34 1.1 47 47 WNW 7 11 30.2 1023 10 16.0934 0 0
10:53 am 10:53 Sunny 59 15 35 1.7 41 41 VRB 6 9 30.19 1022 10 16.0934 0 0
11:53 am 11:53 Sunny 65 18.3 35 1.7 33 33 WSW 8 13 30.17 1022 10 16.0934 0 0
12:53 pm 12:53 Sunny 70 21.1 31 -0.6 23 23 NW 12 19 30.13 1020 10 16.0934 0 0
1:53 pm 13:53 Sunny 72 22.2 32 0 23 23 NNE 9 15 30.12 1020 10 16.0934 0 0
2:53 pm 14:53 Sunny 74 23.3 32 0 21 21 N 10 17 30.11 1020 10 16.0934 0 0
3:53 pm 15:53 Sunny 75 23.9 34 1.1 22 22 NNW 10 17 30.09 1019 10 16.0934 0 0
4:53 pm 16:53 Sunny 75 23.9 35 1.7 23 23 NW 8 13 30.07 1018 10 16.0934 0 0
5:53 pm 17:53 Sunny 74 23.3 36 2.2 25 25 N 12 19 30.08 1019 10 16.0934 0 0
6:53 pm 18:53 Sunny 71 21.7 37 2.8 29 29 N 8 13 30.06 1018 10 16.0934 0 0
7:53 pm 19:53 Sunny 61 16.1 40 4.4 46 46 E 8 13 30.08 1019 10 16.0934 0 0
8:53 pm 20:53 Clear 54 12.2 39 3.9 57 57 ESE 7 11 30.11 1020 10 16.0934 0 0
9:53 pm 21:53 Clear 53 11.7 38 3.3 57 57 ESE 7 11 30.1 1019 10 16.0934 0 0
10:53 pm 22:53 Clear 50 10 38 3.3 63 63 ESE 5 7 30.09 1019 10 16.0934 0 0
11:53 pm 23:53 Clear 47 8.3 37 2.8 69 69 E 6 9 30.08 1019 10 16.0934 0 0

Powered by AerisWeather